Weather History for Hurghada, Egypt

Change the Weather History Date:

Saturday, January 12, 2013

  Actual Average Record
Temperature  
Mean Temperature 60 °F -  
Max Temperature 71 °F 69 °F 78 °F (2003)
Min Temperature 50 °F 52 °F 46 °F (2012)
Degree Days  
Heating Degree Days 4    
Growing Degree Days 10 (Base 50)    
Moisture  
Dew Point 38 °F    
Average Humidity 45    
Maximum Humidity 62    
Minimum Humidity 24    
Precipitation  
Precipitation 0.00 in - - ()
Sea Level Pressure  
Sea Level Pressure 30.16 in    
Wind  
Wind Speed 11 mph ()    
Max Wind Speed 18 mph    
Max Gust Speed -    
Visibility 6.1 miles    
Events      
Averages and records for this station are not official NWS values.
T = Trace of Precipitation, MM = Missing Value Source: Averaged Metar Reports

Daily Weather History Graph

Daily Weather History Graph

Search for Another Location

Airport:

Trip Planner

Search our weather history database for the weather conditions in past years. The results will help you decide how hot, cold, wet, or windy it might be!

Date:

Astronomy

Jan. 12, 2013 Rise Set
Actual Time 6:35 AM EET 5:10 PM EET
Civil Twilight 6:10 AM EET 5:35 PM EET
Nautical Twilight 5:42 AM EET 6:04 PM EET
Astronomical Twilight 5:13 AM EET 6:32 PM EET
Moon 6:46 AM EET (1/12) 6:06 PM EET (1/12)
Length of Visible Light 11h 24m
Length of Day
10h 34m
New Moon, 1% of the Moon is Illuminated
Jan 12
New Moon
Jan 19
First Quarter
Jan 27
Full
Feb 3
Last Quarter
Feb 10
New

Hourly Weather History & Observations

Time (EET) Temp. Dew Point Humidity Pressure Visibility Wind Dir Wind Speed Gust Speed Precip Events Conditions
12:00 AM 50.0 °F 30.2 °F 47% 30.24 in - WNW 8.1 mph - N/A   Clear
1:00 AM 50.0 °F 30.2 °F 47% 30.21 in - WNW 18.4 mph - N/A   Clear
2:00 AM 51 °F 32 °F 36% 30.23 in 6 mi WNW 13.8 mph - -  
2:00 AM 51.8 °F 33.8 °F 50% 30.21 in - WNW 13.8 mph - N/A   Clear
3:00 AM 51.8 °F 35.6 °F 54% 30.18 in - WNW 9.2 mph - N/A   Clear
4:00 AM 50.0 °F 35.6 °F 58% 30.18 in - WNW 13.8 mph - N/A   Clear
5:00 AM 51.8 °F 37.4 °F 58% 30.18 in - WNW 13.8 mph - N/A   Clear
6:00 AM 51.8 °F 37.4 °F 58% 30.15 in - WNW 12.7 mph - N/A   Clear
7:00 AM 51.8 °F 39.2 °F 62% 30.18 in 6.2 mi WNW 12.7 mph - N/A   Partly Cloudy
8:00 AM 55 °F 40 °F 46% 30.19 in 6 mi WNW 12.7 mph - -   Scattered Clouds
8:00 AM 55.4 °F 41.0 °F 58% 30.18 in 6.2 mi WNW 12.7 mph - N/A   Scattered Clouds
9:00 AM 60.8 °F 39.2 °F 45% 30.18 in 6.2 mi NW 18.4 mph - N/A   Scattered Clouds
10:00 AM 62.6 °F 37.4 °F 39% 30.18 in 6.2 mi NW 15.0 mph - N/A   Scattered Clouds
11:00 AM 66.2 °F 35.6 °F 32% 30.18 in 6.2 mi NNW 11.5 mph - N/A   Scattered Clouds
12:00 PM 68.0 °F 35.6 °F 30% 30.15 in - NNW 8.1 mph - N/A   Clear
1:00 PM 68.0 °F 35.6 °F 30% 30.12 in - NNW 10.4 mph - N/A   Clear
2:00 PM 70 °F 41 °F 24% 30.12 in 6 mi North 13.8 mph - -   Partly Cloudy
2:00 PM 69.8 °F 41.0 °F 35% 30.09 in - North 13.8 mph - N/A   Clear
3:00 PM 69.8 °F 41.0 °F 35% 30.12 in - North 12.7 mph - N/A   Clear
4:00 PM 68.0 °F 42.8 °F 40% 30.12 in - North 15.0 mph - N/A   Clear
5:00 PM 66.2 °F 42.8 °F 43% 30.12 in - North 16.1 mph - N/A   Clear
6:00 PM 64.4 °F 41.0 °F 42% 30.12 in - North 12.7 mph - N/A   Clear
7:00 PM 60.8 °F 42.8 °F 52% 30.12 in - NW 10.4 mph - N/A   Clear
8:00 PM 59 °F 37 °F 32% 30.15 in 6 mi NW 10.4 mph - -  
8:00 PM 59.0 °F 37.4 °F 45% 30.15 in - NW 10.4 mph - N/A   Clear
9:00 PM 57.2 °F 35.6 °F 44% 30.15 in - WNW 9.2 mph - N/A   Clear
10:00 PM 55.4 °F 39.2 °F 54% 30.12 in - WNW 15.0 mph - N/A   Clear
11:00 PM 55.4 °F 39.2 °F 54% 30.12 in - WNW 15.0 mph - N/A   Clear